[Iaude] MPEC V124: 2023 VQ3 [a=2.72,e=0.62,i=3.6,H=24.4]
    mpec at marsden.cfa.harvard.edu 
    mpec at marsden.cfa.harvard.edu
       
    Wed Nov  8 17:07:25 EST 2023
    
    
  
M.P.E.C. 2023-V124                             Issued 2023 November 8, 22:05 UT
     The Minor Planet Electronic Circulars contain information on unusual
         minor planets, routine data on comets and natural satellites,
         and occasional editorial announcements.  They are published
    on behalf of Division F of the International Astronomical Union by the
          Minor Planet Center, Smithsonian Astrophysical Observatory,
                          Cambridge, MA 02138, U.S.A.
			  
             Prepared using the Tamkin Foundation Computer Network
                              MPC at CFA.HARVARD.EDU
            URL https://www.minorplanetcenter.net/    ISSN 1523-6714
                                    2023 VQ3                                    
Observations:
     K23V03Q*1C2023 11 07.22304700 17 30.836+01 47 39.66         20.26GVEV124G96
     K23V03Q 1C2023 11 07.22867000 17 35.110+01 48 31.07         19.83GVEV124G96
     K23V03Q 1C2023 11 07.23431000 17 39.361+01 49 22.58         20.44GVEV124G96
     K23V03Q mC2023 11 07.24871800 17 50.258+01 51 33.70         19.93GVEV124I52
     K23V03Q mC2023 11 07.24914800 17 50.568+01 51 37.44         21.04GVEV124I52
     K23V03Q mC2023 11 07.24956100 17 50.903+01 51 41.51         20.00GVEV124I52
     K23V03Q mC2023 11 07.24997400 17 51.176+01 51 45.18         20.56GVEV124I52
     K23V03Q KC2023 11 07.32161500 18 45.716+02 02 36.06         20.21GVEV124I52
     K23V03Q KC2023 11 07.32287400 18 46.688+02 02 47.44         19.78GVEV124I52
     K23V03Q KC2023 11 07.32414200 18 47.671+02 02 58.67         20.00GVEV124I52
     K23V03Q KC2023 11 07.32538100 18 48.604+02 03 10.19         20.31GVEV124I52
     K23V03Q hC2023 11 07.71620200 24 07.02 +03 01 44.6          20.5 GVEV124L01
     K23V03Q hC2023 11 07.71830600 24 08.59 +03 02 03.7          20.3 GVEV124L01
     K23V03Q hC2023 11 07.72065900 24 10.44 +03 02 24.1          20.0 GVEV124L01
     K23V03Q KC2023 11 07.86589000 26 00.97 +03 24 09.6                VEV124204
     K23V03Q KC2023 11 07.87429700 26 07.30 +03 25 24.6                VEV124204
     K23V03Q KC2023 11 07.88270500 26 13.64 +03 26 40.0          20.2 GVEV124204
     K23V03Q KC2023 11 08.07492200 28 47.46 +03 55 25.1          20.3 GVEV124H21
     K23V03Q KC2023 11 08.08051200 28 51.62 +03 56 14.9          20.5 GVEV124H21
     K23V03Q KC2023 11 08.08330700 28 53.73 +03 56 40.0          20.7 GVEV124H21
     K23V03Q KC2023 11 08.08450700 28 56.49 +03 56 57.2          19.8 GXEV124858
     K23V03Q KC2023 11 08.09075400 29 01.21 +03 57 53.0          20.1 GXEV124858
     K23V03Q KC2023 11 08.09799800 29 06.65 +03 58 57.6          19.8 GXEV124858
     K23V03Q  C2023 11 08.28429100 31 30.950+04 26 54.91         20.34wXEV124F51
     K23V03Q  C2023 11 08.30418100 31 45.597+04 29 50.83         20.21wXEV124F51
     K23V03Q  C2023 11 08.31418300 31 52.956+04 31 19.30         20.49wXEV124F51
     K23V03Q KC2023 11 08.79846200 38 10.65 +05 41 07.3          19.9 GVEV124L06
     K23V03Q KC2023 11 08.79881700 38 10.89 +05 41 10.1          20.0 GVEV124L06
     K23V03Q KC2023 11 08.85289100 38 50.87 +05 48 58.7          19.5 GVEV124L06
     K23V03Q KC2023 11 08.85324600 38 51.14 +05 49 01.9          19.8 GVEV124L06
Observer details:
204 Schiaparelli Observatory.  Observers L. Buzzi, G. Galli.  0.84-m f/3.5
    reflector + CCD.
858 Tebbutt Observatory, Edgewood.  Observer F. B. Zoltowski.  0.51-m f/8.1
    Schmidt-Cassegrain + CCD.
F51 Pan-STARRS 1, Haleakala.  Observers J. Bulger, T. Lowe, P. Minguez, A.
    Schultz, I. Smith.  Measurers K. Chambers, T. de Boer, J. Fairlamb, H.
    Gao, M. Huber, C.-C. Lin, E. Magnier, Y. Ramanjooloo, R. Wainscoat, R.
    Weryk.  1.8-m Ritchey-Chretien + CCD.
G96 Mt. Lemmon Survey.  Observer D. Rankin.  Measurers E. C. Beshore, D. Fay,
    J. B. Fazekas, D. C. Fuls, A. R. Gibbs, A. D. Grauer, H. Groeller, J. K.
    Hogan, R. A. Kowalski, S. M. Larson, G. J. Leonard, D. Rankin, R. L.
    Seaman, F. C. Shelly, K. W. Wierzchos.  1.5-m reflector + 10K CCD.
H21 Astronomical Research Observatory, Westfield.  Observer R. Holmes.
    Measurers T. Linder, R. Holmes, L. Horn.  0.76-m f/3.0 astrograph + CCD.
I52 Steward Observatory, Mt. Lemmon Station.  Observer H. Groeller.  Measurers
    E. C. Beshore, D. Fay, J. B. Fazekas, D. C. Fuls, A. R. Gibbs, A. D.
    Grauer, H. Groeller, J. K. Hogan, R. A. Kowalski, S. M. Larson, G. J.
    Leonard, D. Rankin, R. L. Seaman, F. C. Shelly, K. W. Wierzchos.  1.0-m
    prime focus + CCD.
L01 Visnjan Observatory, Tican.  Observer K. Korlevic.  1.0-m f/2.9 reflector
    + CCD.
L06 Sormano 2 Observatory, Bellagio Via Lattea.  Observer G. Ventre.  Measurer
    P. Sicoli.  0.36m Schmidt Cassegrain + CCD.
Orbital elements:
2023 VQ3                                                 Earth MOID = 0.0353 AU
Epoch 2023 Sept. 13.0 TT = JDT 2460200.5                Veres                   
M 351.59212              (2000.0)            P               Q                  
n   0.21994972     Peri.  339.65052     +0.93080806     -0.36309466             
a   2.7180270      Node    41.71613     +0.34346130     +0.82964198             
e   0.6225525      Incl.    3.61317     +0.12502278     +0.42409487             
P   4.48           H   24.45          G   0.15           U   8                  
Residuals in seconds of arc
231107 G96  0.2-  0.3-    231107 I52  0.3-  0.0     231108 858  0.2-  0.3+
231107 G96  0.2+  0.1-    231107 L01  0.1-  0.0     231108 858  0.1+  0.4+
231107 G96  0.0   0.0     231107 L01  0.7-  0.1+    231108 858  0.1+  0.5+
231107 I52  0.0   0.0     231107 L01  0.0   0.7-    231108 F51  0.1-  0.2-
231107 I52  0.2-  0.1-    231107 204  0.1+  0.4+    231108 F51  0.3-  0.1-
231107 I52  0.1+  0.2+    231107 204  0.1+  0.1+    231108 F51  0.3-  0.1+
231107 I52  0.5-  0.1+    231107 204  0.1+  0.2+    231108 L06  0.5+  0.1-
231107 I52  0.3-  0.0     231108 H21  0.3+  0.0     231108 L06  0.1+  0.4-
231107 I52  0.2-  0.0     231108 H21  0.2-  0.0     231108 L06  0.1-  0.2+
231107 I52  0.0   0.3-    231108 H21  0.1+  0.2+    231108 L06  0.0   0.3+
Ephemeris:
2023 VQ3                 a,e,i = 2.72, 0.62, 4                   q = 1.0259
Date    TT    R. A. (2000) Decl.     Delta      r    Elong.  Phase     V
2023 10 09    20 02 46.7 -34 30 04   0.1578  1.0389   100.2    71.2    23.0
...
2023 10 24    21 29 06.4 -26 23 23   0.09948 1.0266   105.9    68.8    21.9
...
2023 11 01    22 55 12.4 -13 32 49   0.07829 1.0360   121.7    54.6    21.0
...
2023 11 07    00 14 33.7 +01 14 35   0.07555 1.0501   139.9    37.5    20.5
2023 11 08    00 27 45.8 +03 45 17   0.07654 1.0530   142.9    34.6    20.4
2023 11 09    00 40 42.9 +06 11 09   0.07794 1.0561   145.8    31.9    20.4
...
2023 11 15    01 49 39.9 +17 57 45   0.09401 1.0776   158.9    19.3    20.5
...
2023 11 23    02 53 30.4 +26 08 56   0.1301  1.1140   165.4    12.9    21.0
...
2023 12 08    03 54 52.5 +30 45 06   0.2232  1.2015   164.1    13.0    22.4
M. P. C. Staff               (C) Copyright 2023 MPC           M.P.E.C. 2023-V124
    
    
More information about the Iaude
mailing list